Content
SEND FEEDBACK

Daily
Averages
Monthly
Summary
Canada

QUEBEC CITY, QUEBEC


Home > North America > Canada > Quebec
Elevation: 239 feet     Latitude: 46 48N     Longitude: 071 23W

WEATHER
 
SELECT A DAY
Number of Records: 191,965;   Date Range: 6/30/96 - 7/20/14
 
SHARE

PRINT THIS DATA

[ ← Previous Day ]
WEATHER ALMANAC - APRIL 6, 2013
[ Next Day → ]
[ °C ]   °F
Weather ElementAverageHighLow
Temperature25 °F33.8 °F (6:00 pm)17.6 °F (6:00 am)
Dewpoint7.9 °F13 °F (8:00 pm)3.2 °F (6:00 am)
Humidity45.3 %59 % (11:00 pm)22 % (5:00 pm)
Barometer30.17 in30.29 in (9:00 pm)29.93 in (1:00 am)
Wind Speed12 mph19.6 mph (9:00 am)
Wind Gust27.6 mph (2:00 pm)
Weather ElementAverage
Visibility24.1 mi
Wind DirectionWNW (281.9 °)

Weather ElementTotal
Precipitation---
Heating Degree Days39.3 (Base 65)
Averaged from 31 records on April 6, 2013
WEATHER CONDITIONS BREAKOUT
WIND DIRECTION BREAKOUT
WEATHER BY HOUR - APRIL 6, 2013
[ °C ]   °F
Local TimeTemperatureDewpointHumidityBarometerVisibilityWind DirectionWind SpeedGust SpeedPrecipitationEventsConditions
1:00 AM24.8 °F8.6 °F50 %29.93 in15.0 miNNW (330°)18.4 mph25.3 mphPartly Cloudy
2:00 AM22.0 °F10.0 °F47 %29.95 inNW (310°)9.2 mph
2:00 AM23.0 °F8.6 °F54 %29.96 in15.0 miWNW (300°)12.7 mph18.4 mphPartly Cloudy
3:00 AM21.2 °F6.8 °F54 %29.98 in15.0 miNW (320°)11.5 mph21.9 mphClear
4:00 AM19.4 °F5.0 °F54 %30.01 in15.0 miNW (320°)10.4 mph23.0 mphPartly Cloudy
5:00 AM19.0 °F7.0 °F46 %30.04 inNW (310°)10.4 mph
5:00 AM19.4 °F5.0 °F54 %30.04 in15.0 miWNW (290°)11.5 mphMostly Cloudy
6:00 AM17.6 °F3.2 °F53 %30.08 in15.0 miNW (320°)13.8 mphMostly Cloudy
7:00 AM17.6 °F5.0 °F58 %30.12 in30.0 miWNW (290°)13.8 mphPartly Cloudy
8:00 AM18.0 °F6.0 °F45 %30.15 inWNW (290°)11.5 mph
8:00 AM17.6 °F5.0 °F58 %30.15 in30.0 miWNW (290°)17.3 mphPartly Cloudy
9:00 AM19.4 °F3.2 °F49 %30.18 in30.0 miWNW (290°)19.6 mphPartly Cloudy
10:00 AM21.2 °F5.0 °F50 %30.20 in30.0 miWNW (300°)12.7 mph21.9 mphPartly Cloudy
11:00 AM24.0 °F5.0 °F29 %30.20 inNW (310°)11.5 mph
11:00 AM23.0 °F8.6 °F54 %30.21 in30.0 miWest (270°)13.8 mph25.3 mphPartly Cloudy
12:00 PM24.8 °F6.8 °F46 %30.22 in30.0 miWNW (290°)16.1 mph24.2 mphPartly Cloudy
1:00 PM28.4 °F8.6 °F43 %30.22 in30.0 miWest (280°)17.3 mph23.0 mphPartly Cloudy
2:00 PM29.0 °F10.0 °F30 %30.21 inWest (280°)12.7 mph
2:00 PM30.2 °F8.6 °F40 %30.22 in30.0 miWest (270°)12.7 mph27.6 mphPartly Cloudy
3:00 PM30.2 °F10.4 °F44 %30.22 in30.0 miWest (280°)13.8 mph19.6 mphPartly Cloudy
4:00 PM32.0 °F8.6 °F38 %30.22 in30.0 miWest (270°)15.0 mph24.2 mphPartly Cloudy
5:00 PM33.0 °F9.0 °F22 %30.21 inWest (270°)11.5 mph
5:00 PM32.0 °F6.8 °F35 %30.22 in30.0 miWest (260°)18.4 mphClear
6:00 PM33.8 °F6.8 °F32 %30.25 in30.0 miWest (270°)9.2 mph18.4 mphClear
7:00 PM32.0 °F8.6 °F38 %30.25 in30.0 miWSW (250°)6.9 mphPartly Cloudy
8:00 PM28.0 °F13.0 °F40 %30.27 inWSW (240°)6.9 mph
8:00 PM28.4 °F10.4 °F47 %30.28 in30.0 miWSW (250°)12.7 mphPartly Cloudy
9:00 PM28.4 °F10.4 °F47 %30.29 in15.0 miSW (230°)6.9 mphClear
10:00 PM26.6 °F10.4 °F51 %30.29 in15.0 miWSW (250°)8.1 mphClear
11:00 PM27.0 °F11.0 °F37 %30.28 inWSW (250°)4.6 mph
11:00 PM24.8 °F12.2 °F59 %30.29 in15.0 miWest (260°)2.3 mphPartly Cloudy
Hourly data recorded from CYQB, located miles away from Quebec City, Quebec







STORIES FROM OUR PARTNERS